Time,TemperatureF,DewpointF,PressureIn,WindDirection,WindDirectionDegrees,WindSpeedMPH,WindSpeedGustMPH,Humidity,HourlyPrecipIn,Conditions,Clouds,dailyrainin,SoftwareType,DateUTC
2013-01-15 00:04:00,27.0,23.9,30.29,NNE,30,2.0,2.0,88,0.00,,,0.00,Wunderground v.1.15,2013-01-15 06:04:00,
2013-01-15 00:09:00,26.9,23.8,30.29,NE,36,0.0,2.0,88,0.00,,,0.00,Wunderground v.1.15,2013-01-15 06:09:00,
2013-01-15 00:14:00,26.9,23.8,30.29,NNW,338,0.0,1.0,88,0.00,,,0.00,Wunderground v.1.15,2013-01-15 06:14:00,
2013-01-15 00:19:00,26.8,23.7,30.29,NNW,338,1.0,1.0,88,0.00,,,0.00,Wunderground v.1.15,2013-01-15 06:19:00,
2013-01-15 00:25:00,26.8,23.7,30.29,East,80,3.0,3.0,88,0.00,,,0.00,Wunderground v.1.15,2013-01-15 06:25:00,
2013-01-15 00:31:00,26.7,23.6,30.29,NNE,26,0.0,1.0,88,0.00,,,0.00,Wunderground v.1.15,2013-01-15 06:31:00,
2013-01-15 00:37:00,26.7,23.6,30.30,NNE,26,0.0,1.0,88,0.00,,,0.00,Wunderground v.1.15,2013-01-15 06:37:00,
2013-01-15 00:42:00,26.7,23.6,30.30,NNE,17,1.0,1.0,88,0.00,,,0.00,Wunderground v.1.15,2013-01-15 06:42:00,
2013-01-15 00:48:00,26.7,23.6,30.30,NNW,334,1.0,2.0,88,0.00,,,0.00,Wunderground v.1.15,2013-01-15 06:48:00,
2013-01-15 00:53:00,26.6,23.5,30.30,NNW,348,1.0,1.0,88,0.00,,,0.00,Wunderground v.1.15,2013-01-15 06:53:00,
2013-01-15 00:58:00,26.6,23.5,30.29,NE,36,1.0,2.0,88,0.00,,,0.00,Wunderground v.1.15,2013-01-15 06:58:00,
2013-01-15 01:03:00,26.6,23.5,30.29,NNE,31,1.0,2.0,88,0.00,,,0.00,Wunderground v.1.15,2013-01-15 07:03:00,
2013-01-15 01:09:00,26.6,23.5,30.29,NNE,31,0.0,3.0,88,0.00,,,0.00,Wunderground v.1.15,2013-01-15 07:09:00,
2013-01-15 01:14:00,26.5,23.4,30.29,NNE,12,1.0,1.0,88,0.00,,,0.00,Wunderground v.1.15,2013-01-15 07:14:00,
2013-01-15 01:19:00,26.5,23.4,30.28,NNE,12,0.0,1.0,88,0.00,,,0.00,Wunderground v.1.15,2013-01-15 07:19:00,
2013-01-15 01:25:00,26.5,23.4,30.29,NE,46,0.0,2.0,88,0.00,,,0.00,Wunderground v.1.15,2013-01-15 07:25:00,
2013-01-15 01:30:00,26.4,23.3,30.28,North,5,0.0,4.0,88,0.00,,,0.00,Wunderground v.1.15,2013-01-15 07:30:00,
2013-01-15 01:35:00,26.4,23.3,30.28,NE,44,3.0,3.0,88,0.00,,,0.00,Wunderground v.1.15,2013-01-15 07:35:00,
2013-01-15 01:41:00,26.4,23.3,30.28,NNE,32,2.0,2.0,88,0.00,,,0.00,Wunderground v.1.15,2013-01-15 07:41:00,
2013-01-15 01:46:00,26.4,23.3,30.28,North,5,0.0,2.0,88,0.00,,,0.00,Wunderground v.1.15,2013-01-15 07:46:00,
2013-01-15 01:51:00,26.3,23.2,30.28,NNE,28,2.0,2.0,88,0.00,,,0.00,Wunderground v.1.15,2013-01-15 07:51:00,
2013-01-15 01:56:00,26.3,23.5,30.29,North,9,1.0,2.0,89,0.00,,,0.00,Wunderground v.1.15,2013-01-15 07:56:00,
2013-01-15 02:01:00,26.3,23.5,30.29,NNE,28,0.0,1.0,89,0.00,,,0.00,Wunderground v.1.15,2013-01-15 08:01:00,
2013-01-15 02:06:00,26.3,23.5,30.28,NE,36,0.0,5.0,89,0.00,,,0.00,Wunderground v.1.15,2013-01-15 08:06:00,
2013-01-15 02:11:00,26.2,23.1,30.28,NNE,24,2.0,2.0,88,0.00,,,0.00,Wunderground v.1.15,2013-01-15 08:11:00,
2013-01-15 02:17:00,26.2,23.4,30.28,NNE,24,1.0,3.0,89,0.00,,,0.00,Wunderground v.1.15,2013-01-15 08:17:00,
2013-01-15 02:22:00,26.2,23.4,30.27,ENE,67,1.0,2.0,89,0.00,,,0.00,Wunderground v.1.15,2013-01-15 08:22:00,
2013-01-15 02:27:00,26.1,23.0,30.27,NE,51,0.0,6.0,88,0.00,,,0.00,Wunderground v.1.15,2013-01-15 08:27:00,
2013-01-15 02:32:00,26.1,23.3,30.27,NE,51,3.0,3.0,89,0.00,,,0.00,Wunderground v.1.15,2013-01-15 08:32:00,
2013-01-15 02:37:00,26.1,23.3,30.27,NE,41,2.0,3.0,89,0.00,,,0.00,Wunderground v.1.15,2013-01-15 08:37:00,
2013-01-15 02:42:00,26.0,23.2,30.26,NE,42,1.0,3.0,89,0.00,,,0.00,Wunderground v.1.15,2013-01-15 08:42:00,
2013-01-15 02:47:00,26.0,23.2,30.26,NE,40,0.0,5.0,89,0.00,,,0.00,Wunderground v.1.15,2013-01-15 08:47:00,
2013-01-15 02:52:00,26.0,23.2,30.26,NNE,28,2.0,3.0,89,0.00,,,0.00,Wunderground v.1.15,2013-01-15 08:52:00,
2013-01-15 02:57:00,25.9,23.1,30.25,NE,46,1.0,4.0,89,0.00,,,0.00,Wunderground v.1.15,2013-01-15 08:57:00,
2013-01-15 03:02:00,25.9,23.1,30.25,NE,45,0.0,3.0,89,0.00,,,0.00,Wunderground v.1.15,2013-01-15 09:02:00,
2013-01-15 03:07:00,25.9,23.4,30.25,NE,34,3.0,4.0,90,0.00,,,0.00,Wunderground v.1.15,2013-01-15 09:07:00,
2013-01-15 03:12:00,25.8,23.3,30.25,NE,51,2.0,3.0,90,0.00,,,0.00,Wunderground v.1.15,2013-01-15 09:12:00,
2013-01-15 03:17:00,25.8,23.3,30.25,NNE,26,0.0,4.0,90,0.00,,,0.00,Wunderground v.1.15,2013-01-15 09:17:00,
2013-01-15 03:22:00,25.7,23.2,30.25,NNE,31,2.0,4.0,90,0.00,,,0.00,Wunderground v.1.15,2013-01-15 09:22:00,
2013-01-15 03:27:00,25.7,23.2,30.25,NNE,28,1.0,4.0,90,0.00,,,0.00,Wunderground v.1.15,2013-01-15 09:27:00,
2013-01-15 03:33:00,25.7,23.2,30.25,ENE,61,3.0,3.0,90,0.00,,,0.00,Wunderground v.1.15,2013-01-15 09:33:00,
2013-01-15 03:38:00,25.7,23.2,30.25,ENE,57,1.0,3.0,90,0.00,,,0.00,Wunderground v.1.15,2013-01-15 09:38:00,
2013-01-15 03:43:00,25.7,23.4,30.25,NE,36,1.0,2.0,91,0.00,,,0.00,Wunderground v.1.15,2013-01-15 09:43:00,
2013-01-15 03:48:00,25.7,23.2,30.25,NE,36,3.0,3.0,90,0.00,,,0.00,Wunderground v.1.15,2013-01-15 09:48:00,
2013-01-15 03:53:00,25.7,23.4,30.25,NE,41,0.0,3.0,91,0.00,,,0.00,Wunderground v.1.15,2013-01-15 09:53:00,
2013-01-15 03:58:00,25.8,23.5,30.25,North,5,2.0,3.0,91,0.00,,,0.00,Wunderground v.1.15,2013-01-15 09:58:00,
2013-01-15 04:03:00,25.8,23.5,30.25,NNE,32,1.0,4.0,91,0.00,,,0.00,Wunderground v.1.15,2013-01-15 10:03:00,
2013-01-15 04:08:00,25.9,23.6,30.25,NNE,28,2.0,4.0,91,0.00,,,0.00,Wunderground v.1.15,2013-01-15 10:08:00,
2013-01-15 04:13:00,25.9,23.6,30.25,ENE,65,1.0,3.0,91,0.00,,,0.00,Wunderground v.1.15,2013-01-15 10:13:00,
2013-01-15 04:18:00,26.0,23.7,30.25,NE,44,0.0,4.0,91,0.00,,,0.00,Wunderground v.1.15,2013-01-15 10:18:00,
2013-01-15 04:24:00,26.0,23.7,30.24,NE,44,0.0,2.0,91,0.00,,,0.00,Wunderground v.1.15,2013-01-15 10:24:00,
2013-01-15 04:29:00,26.0,23.7,30.24,ENE,67,3.0,4.0,91,0.00,,,0.00,Wunderground v.1.15,2013-01-15 10:29:00,
2013-01-15 04:34:00,26.0,23.7,30.24,NE,56,2.0,5.0,91,0.00,,,0.00,Wunderground v.1.15,2013-01-15 10:34:00,
2013-01-15 04:39:00,26.1,23.8,30.23,NE,38,2.0,5.0,91,0.00,,,0.00,Wunderground v.1.15,2013-01-15 10:39:00,
2013-01-15 04:44:00,26.1,23.8,30.23,NE,40,2.0,4.0,91,0.00,,,0.00,Wunderground v.1.15,2013-01-15 10:44:00,
2013-01-15 04:49:00,26.2,24.2,30.23,NNE,32,0.0,5.0,92,0.00,,,0.00,Wunderground v.1.15,2013-01-15 10:49:00,
2013-01-15 04:54:00,26.2,24.2,30.23,NE,56,3.0,5.0,92,0.00,,,0.00,Wunderground v.1.15,2013-01-15 10:54:00,
2013-01-15 05:00:00,26.2,24.2,30.23,ENE,65,1.0,5.0,92,0.00,,,0.00,Wunderground v.1.15,2013-01-15 11:00:00,
2013-01-15 05:05:00,26.3,24.3,30.22,NE,42,2.0,5.0,92,0.00,,,0.00,Wunderground v.1.15,2013-01-15 11:05:00,
2013-01-15 05:11:00,26.3,24.3,30.22,NE,55,0.0,3.0,92,0.00,,,0.00,Wunderground v.1.15,2013-01-15 11:11:00,
2013-01-15 05:16:00,26.3,24.3,30.22,ENE,67,4.0,4.0,92,0.00,,,0.00,Wunderground v.1.15,2013-01-15 11:16:00,
2013-01-15 05:21:00,26.3,24.3,30.23,ENE,61,1.0,2.0,92,0.00,,,0.00,Wunderground v.1.15,2013-01-15 11:21:00,
2013-01-15 05:26:00,26.4,24.4,30.23,NNE,33,2.0,5.0,92,0.00,,,0.00,Wunderground v.1.15,2013-01-15 11:26:00,
2013-01-15 05:31:00,26.5,24.5,30.22,NE,51,1.0,3.0,92,0.00,,,0.00,Wunderground v.1.15,2013-01-15 11:31:00,
2013-01-15 05:36:00,26.5,24.5,30.22,NE,49,2.0,3.0,92,0.00,,,0.00,Wunderground v.1.15,2013-01-15 11:36:00,
2013-01-15 05:41:00,26.5,24.5,30.22,NE,49,0.0,2.0,92,0.00,,,0.00,Wunderground v.1.15,2013-01-15 11:41:00,
2013-01-15 05:46:00,26.5,24.5,30.21,NE,51,2.0,3.0,92,0.00,,,0.00,Wunderground v.1.15,2013-01-15 11:46:00,
2013-01-15 05:52:00,26.5,24.5,30.21,ENE,69,0.0,2.0,92,0.00,,,0.00,Wunderground v.1.15,2013-01-15 11:52:00,
2013-01-15 05:57:00,26.6,24.6,30.21,NE,51,2.0,3.0,92,0.00,,,0.00,Wunderground v.1.15,2013-01-15 11:57:00,
2013-01-15 06:02:00,26.6,24.8,30.21,NE,42,1.0,3.0,93,0.00,,,0.00,Wunderground v.1.15,2013-01-15 12:02:00,
2013-01-15 06:07:00,26.7,24.9,30.22,NNE,21,2.0,3.0,93,0.00,,,0.00,Wunderground v.1.15,2013-01-15 12:07:00,
2013-01-15 06:12:00,26.7,24.9,30.22,NE,45,2.0,3.0,93,0.00,,,0.00,Wunderground v.1.15,2013-01-15 12:12:00,
2013-01-15 06:17:00,26.7,24.9,30.23,NE,49,0.0,3.0,93,0.00,,,0.00,Wunderground v.1.15,2013-01-15 12:17:00,
2013-01-15 06:22:00,26.9,25.1,30.23,NE,49,0.0,1.0,93,0.00,,,0.00,Wunderground v.1.15,2013-01-15 12:22:00,
2013-01-15 06:27:00,26.9,25.1,30.23,NNE,12,0.0,3.0,93,0.00,,,0.00,Wunderground v.1.15,2013-01-15 12:27:00,
2013-01-15 06:32:00,27.0,25.2,30.24,NNE,17,3.0,4.0,93,0.00,,,0.00,Wunderground v.1.15,2013-01-15 12:32:00,
2013-01-15 06:37:00,27.0,25.2,30.24,NE,37,1.0,4.0,93,0.00,,,0.00,Wunderground v.1.15,2013-01-15 12:37:00,
2013-01-15 06:42:00,27.0,25.0,30.24,ENE,68,0.0,3.0,92,0.00,,,0.00,Wunderground v.1.15,2013-01-15 12:42:00,
2013-01-15 06:47:00,27.1,25.3,30.24,NE,48,1.0,3.0,93,0.00,,,0.00,Wunderground v.1.15,2013-01-15 12:47:00,
2013-01-15 06:53:00,27.1,25.3,30.24,NNE,33,4.0,5.0,93,0.00,,,0.00,Wunderground v.1.15,2013-01-15 12:53:00,
2013-01-15 06:58:00,27.2,25.4,30.24,NE,44,0.0,5.0,93,0.00,,,0.00,Wunderground v.1.15,2013-01-15 12:58:00,
2013-01-15 07:03:00,27.2,25.4,30.25,NNE,18,4.0,4.0,93,0.00,,,0.00,Wunderground v.1.15,2013-01-15 13:03:00,
2013-01-15 07:08:00,27.2,25.2,30.24,NE,34,2.0,4.0,92,0.00,,,0.00,Wunderground v.1.15,2013-01-15 13:08:00,
2013-01-15 07:13:00,27.2,25.2,30.24,NE,49,1.0,2.0,92,0.00,,,0.00,Wunderground v.1.15,2013-01-15 13:13:00,
2013-01-15 07:18:00,27.3,25.3,30.23,ENE,62,4.0,4.0,92,0.00,,,0.00,Wunderground v.1.15,2013-01-15 13:18:00,
2013-01-15 07:23:00,27.3,25.3,30.23,ENE,59,2.0,4.0,92,0.00,,,0.00,Wunderground v.1.15,2013-01-15 13:23:00,
2013-01-15 07:28:00,27.3,25.3,30.22,NE,42,3.0,4.0,92,0.00,,,0.00,Wunderground v.1.15,2013-01-15 13:28:00,
2013-01-15 07:33:00,27.3,25.3,30.23,NE,46,2.0,5.0,92,0.00,,,0.00,Wunderground v.1.15,2013-01-15 13:33:00,
2013-01-15 07:38:00,27.4,25.4,30.23,NE,44,2.0,5.0,92,0.00,,,0.00,Wunderground v.1.15,2013-01-15 13:38:00,
2013-01-15 07:43:00,27.4,25.4,30.23,NE,44,2.0,3.0,92,0.00,,,0.00,Wunderground v.1.15,2013-01-15 13:43:00,
2013-01-15 07:48:00,27.4,25.4,30.23,NNE,25,0.0,3.0,92,0.00,,,0.00,Wunderground v.1.15,2013-01-15 13:48:00,
2013-01-15 07:53:00,27.5,25.5,30.24,ENE,69,1.0,3.0,92,0.00,,,0.00,Wunderground v.1.15,2013-01-15 13:53:00,
2013-01-15 07:58:00,27.5,25.2,30.25,ENE,71,1.0,3.0,91,0.00,,,0.00,Wunderground v.1.15,2013-01-15 13:58:00,
2013-01-15 08:03:00,27.6,25.3,30.25,NE,43,4.0,4.0,91,0.00,,,0.00,Wunderground v.1.15,2013-01-15 14:03:00,
2013-01-15 08:08:00,27.7,25.4,30.25,NNE,13,1.0,4.0,91,0.00,,,0.00,Wunderground v.1.15,2013-01-15 14:08:00,
2013-01-15 08:13:00,27.7,25.4,30.26,NNE,15,0.0,2.0,91,0.00,,,0.00,Wunderground v.1.15,2013-01-15 14:13:00,
2013-01-15 08:19:00,27.8,25.5,30.25,NE,35,4.0,4.0,91,0.00,,,0.00,Wunderground v.1.15,2013-01-15 14:19:00,
2013-01-15 08:24:00,27.9,25.6,30.25,North,360,1.0,3.0,91,0.00,,,0.00,Wunderground v.1.15,2013-01-15 14:24:00,
2013-01-15 08:29:00,27.9,25.6,30.25,North,5,1.0,4.0,91,0.00,,,0.00,Wunderground v.1.15,2013-01-15 14:29:00,
2013-01-15 08:34:00,27.8,25.2,30.26,NNW,346,1.0,4.0,90,0.00,,,0.00,Wunderground v.1.15,2013-01-15 14:34:00,
2013-01-15 08:39:00,27.7,25.2,30.24,NE,39,3.0,4.0,90,0.00,,,0.00,Wunderground v.1.15,2013-01-15 14:39:00,
2013-01-15 08:44:00,27.6,25.1,30.25,NE,34,1.0,4.0,90,0.00,,,0.00,Wunderground v.1.15,2013-01-15 14:44:00,
2013-01-15 08:49:00,27.6,25.1,30.24,NNE,27,0.0,4.0,90,0.00,,,0.00,Wunderground v.1.15,2013-01-15 14:49:00,
2013-01-15 08:54:00,27.6,25.3,30.23,NNE,23,2.0,3.0,91,0.00,,,0.00,Wunderground v.1.15,2013-01-15 14:54:00,
2013-01-15 08:59:00,27.5,25.0,30.24,NE,39,2.0,6.0,90,0.00,,,0.00,Wunderground v.1.15,2013-01-15 14:59:00,
2013-01-15 09:04:00,27.5,25.0,30.23,NNE,19,1.0,4.0,90,0.00,,,0.00,Wunderground v.1.15,2013-01-15 15:04:00,
2013-01-15 09:09:00,27.5,25.2,30.23,NNE,22,2.0,4.0,91,0.00,,,0.00,Wunderground v.1.15,2013-01-15 15:09:00,
2013-01-15 09:14:00,27.6,25.1,30.22,East,79,3.0,5.0,90,0.00,,,0.00,Wunderground v.1.15,2013-01-15 15:14:00,
2013-01-15 09:20:00,27.6,25.1,30.22,NNE,25,2.0,5.0,90,0.00,,,0.00,Wunderground v.1.15,2013-01-15 15:20:00,
2013-01-15 09:25:00,27.7,25.2,30.22,NE,37,4.0,5.0,90,0.00,,,0.00,Wunderground v.1.15,2013-01-15 15:25:00,
2013-01-15 09:30:00,27.7,25.2,30.22,East,82,0.0,5.0,90,0.00,,,0.00,Wunderground v.1.15,2013-01-15 15:30:00,
2013-01-15 09:35:00,27.8,25.2,30.23,NNE,24,3.0,3.0,90,0.00,,,0.00,Wunderground v.1.15,2013-01-15 15:35:00,
2013-01-15 09:40:00,27.8,25.2,30.22,NNE,13,3.0,3.0,90,0.00,,,0.00,Wunderground v.1.15,2013-01-15 15:40:00,
2013-01-15 09:45:00,27.9,25.3,30.22,NNE,33,0.0,4.0,90,0.00,,,0.00,Wunderground v.1.15,2013-01-15 15:45:00,
2013-01-15 09:51:00,28.0,25.4,30.24,East,87,0.0,1.0,90,0.00,,,0.00,Wunderground v.1.15,2013-01-15 15:51:00,
2013-01-15 09:56:00,28.1,25.5,30.24,ENE,61,2.0,4.0,90,0.00,,,0.00,Wunderground v.1.15,2013-01-15 15:56:00,
2013-01-15 10:01:00,28.0,25.2,30.23,ENE,63,2.0,2.0,89,0.00,,,0.00,Wunderground v.1.15,2013-01-15 16:01:00,
2013-01-15 10:06:00,28.1,25.5,30.23,ENE,71,1.0,4.0,90,0.00,,,0.00,Wunderground v.1.15,2013-01-15 16:06:00,
2013-01-15 10:11:00,28.3,25.7,30.23,NE,52,0.0,2.0,90,0.00,,,0.00,Wunderground v.1.15,2013-01-15 16:11:00,
2013-01-15 10:16:00,28.4,25.8,30.21,NNE,32,3.0,5.0,90,0.00,,,0.00,Wunderground v.1.15,2013-01-15 16:16:00,
2013-01-15 10:21:00,28.5,25.7,30.18,ENE,57,3.0,4.0,89,0.00,,,0.00,Wunderground v.1.15,2013-01-15 16:21:00,
2013-01-15 10:26:00,28.6,26.0,30.17,NE,55,0.0,5.0,90,0.00,,,0.00,Wunderground v.1.15,2013-01-15 16:26:00,
2013-01-15 10:32:00,28.7,26.1,30.16,East,100,4.0,4.0,90,0.00,,,0.00,Wunderground v.1.15,2013-01-15 16:32:00,
2013-01-15 10:37:00,28.7,25.9,30.15,ENE,57,0.0,6.0,89,0.00,,,0.00,Wunderground v.1.15,2013-01-15 16:37:00,
2013-01-15 10:42:00,28.7,26.1,30.16,NE,46,2.0,4.0,90,0.00,,,0.00,Wunderground v.1.15,2013-01-15 16:42:00,
2013-01-15 10:47:00,28.8,26.2,30.15,ENE,67,3.0,7.0,90,0.00,,,0.00,Wunderground v.1.15,2013-01-15 16:47:00,
2013-01-15 10:52:00,28.9,26.3,30.14,NE,55,3.0,3.0,90,0.00,,,0.00,Wunderground v.1.15,2013-01-15 16:52:00,
2013-01-15 10:57:00,29.1,26.5,30.14,NE,40,3.0,6.0,90,0.00,,,0.00,Wunderground v.1.15,2013-01-15 16:57:00,
2013-01-15 11:02:00,29.2,26.6,30.15,ENE,65,1.0,4.0,90,0.00,,,0.00,Wunderground v.1.15,2013-01-15 17:02:00,
2013-01-15 11:07:00,29.3,26.5,30.17,NE,52,0.0,4.0,89,0.00,,,0.00,Wunderground v.1.15,2013-01-15 17:07:00,
2013-01-15 11:12:00,29.4,26.8,30.17,ENE,57,2.0,2.0,90,0.00,,,0.00,Wunderground v.1.15,2013-01-15 17:12:00,
2013-01-15 11:17:00,29.4,26.6,30.15,NNE,25,3.0,7.0,89,0.00,,,0.00,Wunderground v.1.15,2013-01-15 17:17:00,
2013-01-15 11:22:00,29.5,26.7,30.15,NNW,332,1.0,3.0,89,0.00,,,0.00,Wunderground v.1.15,2013-01-15 17:22:00,
2013-01-15 11:27:00,29.6,27.0,30.16,NNW,346,0.0,3.0,90,0.00,,,0.00,Wunderground v.1.15,2013-01-15 17:27:00,
2013-01-15 11:32:00,29.6,26.8,30.18,NNE,26,1.0,4.0,89,0.00,,,0.00,Wunderground v.1.15,2013-01-15 17:32:00,
2013-01-15 11:37:00,29.7,26.9,30.18,NW,311,2.0,6.0,89,0.00,,,0.00,Wunderground v.1.15,2013-01-15 17:37:00,
2013-01-15 11:43:00,29.8,27.5,30.20,NNW,329,3.0,4.0,91,0.00,,,0.00,Wunderground v.1.15,2013-01-15 17:43:00,
2013-01-15 11:55:00,29.8,27.5,30.19,NNW,336,3.0,3.0,91,0.00,,,0.00,Wunderground v.1.15,2013-01-15 17:55:00,
2013-01-15 12:03:00,29.7,27.4,30.18,NW,312,4.0,4.0,91,0.00,,,0.00,Wunderground v.1.15,2013-01-15 18:03:00,
2013-01-15 12:08:00,29.6,27.0,30.17,NW,325,2.0,5.0,90,0.00,,,0.00,Wunderground v.1.15,2013-01-15 18:08:00,
2013-01-15 12:13:00,29.6,27.3,30.17,NNW,343,0.0,3.0,91,0.00,,,0.00,Wunderground v.1.15,2013-01-15 18:13:00,
2013-01-15 12:19:00,29.5,26.9,30.17,NW,323,2.0,5.0,90,0.00,,,0.00,Wunderground v.1.15,2013-01-15 18:19:00,
2013-01-15 12:24:00,29.5,26.9,30.19,NNW,327,1.0,3.0,90,0.00,,,0.00,Wunderground v.1.15,2013-01-15 18:24:00,
2013-01-15 12:29:00,29.5,26.9,30.20,NW,314,1.0,6.0,90,0.00,,,0.00,Wunderground v.1.15,2013-01-15 18:29:00,
2013-01-15 12:34:00,29.5,26.9,30.19,NNW,344,1.0,3.0,90,0.00,,,0.00,Wunderground v.1.15,2013-01-15 18:34:00,
2013-01-15 12:39:00,29.4,26.8,30.17,NW,307,5.0,5.0,90,0.00,,,0.00,Wunderground v.1.15,2013-01-15 18:39:00,
2013-01-15 12:44:00,29.3,26.7,30.16,NW,321,0.0,2.0,90,0.00,,,0.00,Wunderground v.1.15,2013-01-15 18:44:00,
2013-01-15 12:49:00,29.4,27.1,30.16,WNW,299,2.0,4.0,91,0.00,,,0.00,Wunderground v.1.15,2013-01-15 18:49:00,
2013-01-15 12:55:00,29.5,27.5,30.15,North,355,0.0,3.0,92,0.00,,,0.00,Wunderground v.1.15,2013-01-15 18:55:00,
2013-01-15 13:00:00,29.4,27.1,30.15,NW,315,3.0,4.0,91,0.00,,,0.00,Wunderground v.1.15,2013-01-15 19:00:00,
2013-01-15 13:05:00,29.4,26.8,30.16,NNW,341,3.0,3.0,90,0.00,,,0.00,Wunderground v.1.15,2013-01-15 19:05:00,
2013-01-15 13:10:00,29.5,27.2,30.16,NE,56,0.0,1.0,91,0.00,,,0.00,Wunderground v.1.15,2013-01-15 19:10:00,
2013-01-15 13:15:00,29.6,27.6,30.14,NNE,15,2.0,3.0,92,0.00,,,0.00,Wunderground v.1.15,2013-01-15 19:15:00,
2013-01-15 13:20:00,29.6,27.6,30.17,NW,326,3.0,3.0,92,0.00,,,0.00,Wunderground v.1.15,2013-01-15 19:20:00,
2013-01-15 13:26:00,29.7,27.7,30.15,NNE,22,2.0,4.0,92,0.00,,,0.00,Wunderground v.1.15,2013-01-15 19:26:00,
2013-01-15 13:31:00,29.7,27.7,30.14,NNE,19,0.0,1.0,92,0.00,,,0.00,Wunderground v.1.15,2013-01-15 19:31:00,
2013-01-15 13:36:00,29.7,27.9,30.15,North,5,0.0,3.0,93,0.00,,,0.00,Wunderground v.1.15,2013-01-15 19:36:00,
2013-01-15 13:41:00,29.7,27.7,30.14,NNE,29,1.0,3.0,92,0.00,,,0.00,Wunderground v.1.15,2013-01-15 19:41:00,
2013-01-15 13:46:00,29.7,27.9,30.13,NNW,329,1.0,3.0,93,0.00,,,0.00,Wunderground v.1.15,2013-01-15 19:46:00,
2013-01-15 13:52:00,29.7,27.9,30.13,North,360,0.0,2.0,93,0.00,,,0.00,Wunderground v.1.15,2013-01-15 19:52:00,
2013-01-15 13:57:00,29.8,28.0,30.13,NNE,28,0.0,3.0,93,0.00,,,0.00,Wunderground v.1.15,2013-01-15 19:57:00,
2013-01-15 14:02:00,29.8,28.0,30.13,North,355,0.0,2.0,93,0.00,,,0.00,Wunderground v.1.15,2013-01-15 20:02:00,
2013-01-15 14:07:00,29.8,28.0,30.14,NW,313,2.0,5.0,93,0.00,,,0.00,Wunderground v.1.15,2013-01-15 20:07:00,
2013-01-15 14:12:00,29.7,27.9,30.15,NNW,340,1.0,3.0,93,0.00,,,0.00,Wunderground v.1.15,2013-01-15 20:12:00,
2013-01-15 14:18:00,29.9,28.1,30.14,NNE,13,2.0,3.0,93,0.00,,,0.00,Wunderground v.1.15,2013-01-15 20:18:00,
2013-01-15 14:23:00,29.8,28.0,30.15,NW,306,2.0,2.0,93,0.00,,,0.00,Wunderground v.1.15,2013-01-15 20:23:00,
2013-01-15 14:28:00,29.8,27.8,30.17,NW,312,2.0,5.0,92,0.00,,,0.00,Wunderground v.1.15,2013-01-15 20:28:00,
2013-01-15 14:33:00,29.9,28.1,30.17,NNW,335,3.0,3.0,93,0.00,,,0.00,Wunderground v.1.15,2013-01-15 20:33:00,
2013-01-15 14:38:00,29.9,28.1,30.14,North,360,2.0,5.0,93,0.00,,,0.00,Wunderground v.1.15,2013-01-15 20:38:00,
2013-01-15 14:44:00,30.0,28.2,30.16,North,360,1.0,3.0,93,0.00,,,0.00,Wunderground v.1.15,2013-01-15 20:44:00,
2013-01-15 14:49:00,30.1,28.6,30.16,NW,319,0.0,4.0,94,0.00,,,0.00,Wunderground v.1.15,2013-01-15 20:49:00,
2013-01-15 14:54:00,30.2,28.7,30.14,NW,320,0.0,3.0,94,0.00,,,0.00,Wunderground v.1.15,2013-01-15 20:54:00,
2013-01-15 14:59:00,30.2,28.7,30.15,NNW,331,1.0,3.0,94,0.00,,,0.00,Wunderground v.1.15,2013-01-15 20:59:00,
2013-01-15 15:04:00,30.3,28.8,30.13,NE,42,2.0,2.0,94,0.00,,,0.00,Wunderground v.1.15,2013-01-15 21:04:00,
2013-01-15 15:09:00,30.2,28.7,30.15,SSW,212,1.0,3.0,94,0.00,,,0.00,Wunderground v.1.15,2013-01-15 21:09:00,
2013-01-15 15:14:00,30.1,28.6,30.16,NW,311,2.0,2.0,94,0.00,,,0.00,Wunderground v.1.15,2013-01-15 21:14:00,
2013-01-15 15:19:00,30.2,28.7,30.17,NNE,17,2.0,5.0,94,0.00,,,0.00,Wunderground v.1.15,2013-01-15 21:19:00,
2013-01-15 15:24:00,30.3,28.8,30.14,NNE,32,1.0,3.0,94,0.00,,,0.00,Wunderground v.1.15,2013-01-15 21:24:00,
2013-01-15 15:29:00,30.4,28.9,30.13,NNE,32,2.0,4.0,94,0.00,,,0.00,Wunderground v.1.15,2013-01-15 21:29:00,
2013-01-15 15:34:00,30.4,28.9,30.12,NE,38,3.0,4.0,94,0.00,,,0.00,Wunderground v.1.15,2013-01-15 21:34:00,
2013-01-15 15:40:00,30.3,28.8,30.13,NE,38,0.0,4.0,94,0.00,,,0.00,Wunderground v.1.15,2013-01-15 21:40:00,
2013-01-15 15:45:00,30.2,28.7,30.14,NE,38,1.0,3.0,94,0.00,,,0.00,Wunderground v.1.15,2013-01-15 21:45:00,
2013-01-15 15:50:00,30.2,28.7,30.14,NE,38,0.0,1.0,94,0.00,,,0.00,Wunderground v.1.15,2013-01-15 21:50:00,
2013-01-15 15:55:00,30.2,28.7,30.12,NE,38,0.0,2.0,94,0.00,,,0.00,Wunderground v.1.15,2013-01-15 21:55:00,
2013-01-15 16:00:00,30.2,28.7,30.11,NE,38,2.0,2.0,94,0.00,,,0.00,Wunderground v.1.15,2013-01-15 22:00:00,
2013-01-15 16:06:00,30.3,29.0,30.11,NE,38,1.0,2.0,95,0.00,,,0.00,Wunderground v.1.15,2013-01-15 22:06:00,
2013-01-15 16:11:00,30.4,28.9,30.11,NE,38,1.0,1.0,94,0.00,,,0.00,Wunderground v.1.15,2013-01-15 22:11:00,
2013-01-15 16:16:00,30.4,28.9,30.12,NE,38,2.0,3.0,94,0.00,,,0.00,Wunderground v.1.15,2013-01-15 22:16:00,
2013-01-15 16:21:00,30.3,28.8,30.12,NE,38,1.0,3.0,94,0.00,,,0.00,Wunderground v.1.15,2013-01-15 22:21:00,
2013-01-15 16:26:00,30.3,28.8,30.13,NE,38,1.0,3.0,94,0.00,,,0.00,Wunderground v.1.15,2013-01-15 22:26:00,
2013-01-15 16:31:00,30.3,28.8,30.13,NE,38,1.0,1.0,94,0.00,,,0.00,Wunderground v.1.15,2013-01-15 22:31:00,
2013-01-15 16:37:00,30.4,28.9,30.11,NE,38,1.0,4.0,94,0.00,,,0.00,Wunderground v.1.15,2013-01-15 22:37:00,
2013-01-15 16:42:00,30.5,29.0,30.08,NE,38,1.0,3.0,94,0.00,,,0.00,Wunderground v.1.15,2013-01-15 22:42:00,
2013-01-15 16:47:00,30.5,29.0,30.10,NE,38,1.0,3.0,94,0.00,,,0.00,Wunderground v.1.15,2013-01-15 22:47:00,
2013-01-15 16:52:00,30.5,29.0,30.11,NE,38,0.0,2.0,94,0.00,,,0.00,Wunderground v.1.15,2013-01-15 22:52:00,
2013-01-15 16:57:00,30.5,29.0,30.11,NE,38,0.0,3.0,94,0.00,,,0.00,Wunderground v.1.15,2013-01-15 22:57:00,
2013-01-15 17:02:00,30.5,29.0,30.11,NE,38,0.0,2.0,94,0.00,,,0.00,Wunderground v.1.15,2013-01-15 23:02:00,
2013-01-15 17:07:00,30.5,29.0,30.11,NE,38,1.0,2.0,94,0.00,,,0.00,Wunderground v.1.15,2013-01-15 23:07:00,
2013-01-15 17:12:00,30.5,29.0,30.10,NE,38,0.0,2.0,94,0.00,,,0.00,Wunderground v.1.15,2013-01-15 23:12:00,
2013-01-15 17:18:00,30.5,29.0,30.11,NE,38,1.0,2.0,94,0.00,,,0.00,Wunderground v.1.15,2013-01-15 23:18:00,
2013-01-15 17:23:00,30.4,28.9,30.10,NE,38,1.0,1.0,94,0.00,,,0.00,Wunderground v.1.15,2013-01-15 23:23:00,
2013-01-15 17:30:00,30.3,28.8,30.11,NE,38,0.0,1.0,94,0.00,,,0.00,Wunderground v.1.15,2013-01-15 23:30:00,
2013-01-15 17:36:00,30.3,28.8,30.10,NE,38,0.0,2.0,94,0.00,,,0.00,Wunderground v.1.15,2013-01-15 23:36:00,
2013-01-15 17:42:00,30.4,28.9,30.11,NE,38,0.0,0.0,94,0.00,,,0.00,Wunderground v.1.15,2013-01-15 23:42:00,
2013-01-15 17:48:00,30.4,28.9,30.10,NE,38,1.0,1.0,94,0.00,,,0.00,Wunderground v.1.15,2013-01-15 23:48:00,
2013-01-15 17:53:00,30.4,28.9,30.11,NE,38,0.0,2.0,94,0.00,,,0.00,Wunderground v.1.15,2013-01-15 23:53:00,
2013-01-15 17:58:00,30.5,29.0,30.10,NE,38,1.0,2.0,94,0.00,,,0.00,Wunderground v.1.15,2013-01-15 23:58:00,
2013-01-15 18:05:00,30.4,28.9,30.11,NE,38,0.0,1.0,94,0.00,,,0.00,Wunderground v.1.15,2013-01-16 00:05:00,
2013-01-15 18:10:00,30.5,29.0,30.09,NE,38,1.0,1.0,94,0.00,,,0.00,Wunderground v.1.15,2013-01-16 00:10:00,
2013-01-15 18:16:00,30.5,29.0,30.09,NE,38,2.0,2.0,94,0.00,,,0.00,Wunderground v.1.15,2013-01-16 00:16:00,
2013-01-15 18:21:00,30.5,29.0,30.09,NE,38,0.0,1.0,94,0.00,,,0.00,Wunderground v.1.15,2013-01-16 00:21:00,
2013-01-15 18:26:00,30.5,29.0,30.10,NE,38,0.0,3.0,94,0.00,,,0.00,Wunderground v.1.15,2013-01-16 00:26:00,
2013-01-15 18:31:00,30.6,29.1,30.10,NE,38,0.0,2.0,94,0.00,,,0.00,Wunderground v.1.15,2013-01-16 00:31:00,
2013-01-15 18:36:00,30.6,29.1,30.11,NE,38,0.0,2.0,94,0.00,,,0.00,Wunderground v.1.15,2013-01-16 00:36:00,
2013-01-15 18:42:00,30.6,29.1,30.12,NE,38,0.0,0.0,94,0.00,,,0.00,Wunderground v.1.15,2013-01-16 00:42:00,
2013-01-15 18:47:00,30.7,29.4,30.13,NE,38,0.0,0.0,95,0.00,,,0.00,Wunderground v.1.15,2013-01-16 00:47:00,
2013-01-15 18:52:00,30.7,29.4,30.13,NE,38,0.0,0.0,95,0.00,,,0.00,Wunderground v.1.15,2013-01-16 00:52:00,
2013-01-15 18:57:00,30.7,29.4,30.13,NE,38,0.0,0.0,95,0.00,,,0.00,Wunderground v.1.15,2013-01-16 00:57:00,
2013-01-15 19:03:00,30.8,29.5,30.12,NE,38,0.0,0.0,95,0.00,,,0.00,Wunderground v.1.15,2013-01-16 01:03:00,
2013-01-15 19:08:00,30.8,29.5,30.12,NE,38,0.0,0.0,95,0.00,,,0.00,Wunderground v.1.15,2013-01-16 01:08:00,
2013-01-15 19:13:00,30.8,29.5,30.12,NE,38,0.0,0.0,95,0.00,,,0.00,Wunderground v.1.15,2013-01-16 01:13:00,
2013-01-15 19:18:00,30.9,29.6,30.13,NE,38,0.0,1.0,95,0.00,,,0.00,Wunderground v.1.15,2013-01-16 01:18:00,
2013-01-15 19:23:00,30.9,29.6,30.13,NE,38,0.0,0.0,95,0.00,,,0.00,Wunderground v.1.15,2013-01-16 01:23:00,
2013-01-15 19:28:00,30.9,29.6,30.12,NE,38,0.0,0.0,95,0.00,,,0.00,Wunderground v.1.15,2013-01-16 01:28:00,
2013-01-15 19:33:00,31.0,29.7,30.12,NE,38,0.0,0.0,95,0.00,,,0.00,Wunderground v.1.15,2013-01-16 01:33:00,
2013-01-15 19:39:00,31.0,29.7,30.11,NE,38,0.0,0.0,95,0.00,,,0.00,Wunderground v.1.15,2013-01-16 01:39:00,
2013-01-15 19:44:00,31.0,29.7,30.09,NE,38,0.0,1.0,95,0.00,,,0.00,Wunderground v.1.15,2013-01-16 01:44:00,
2013-01-15 19:49:00,31.0,29.7,30.11,NE,38,1.0,1.0,95,0.00,,,0.00,Wunderground v.1.15,2013-01-16 01:49:00,
2013-01-15 19:54:00,31.0,29.7,30.10,NE,38,0.0,1.0,95,0.00,,,0.00,Wunderground v.1.15,2013-01-16 01:54:00,
2013-01-15 19:59:00,31.0,29.7,30.11,NE,38,0.0,1.0,95,0.00,,,0.00,Wunderground v.1.15,2013-01-16 01:59:00,
2013-01-15 20:04:00,31.0,29.7,30.11,NE,38,1.0,1.0,95,0.00,,,0.00,Wunderground v.1.15,2013-01-16 02:04:00,
2013-01-15 20:09:00,31.0,30.0,30.11,NE,38,0.0,1.0,96,0.00,,,0.00,Wunderground v.1.15,2013-01-16 02:09:00,
2013-01-15 20:14:00,31.0,30.0,30.13,NE,38,0.0,0.0,96,0.00,,,0.00,Wunderground v.1.15,2013-01-16 02:14:00,
2013-01-15 20:19:00,31.0,30.0,30.11,NE,38,0.0,2.0,96,0.00,,,0.00,Wunderground v.1.15,2013-01-16 02:19:00,
2013-01-15 20:24:00,31.0,30.0,30.12,NE,38,0.0,1.0,96,0.00,,,0.00,Wunderground v.1.15,2013-01-16 02:24:00,
2013-01-15 20:29:00,31.0,30.0,30.14,NE,38,0.0,1.0,96,0.00,,,0.00,Wunderground v.1.15,2013-01-16 02:29:00,
2013-01-15 20:34:00,31.0,30.0,30.13,NE,38,0.0,0.0,96,0.00,,,0.00,Wunderground v.1.15,2013-01-16 02:34:00,
2013-01-15 20:39:00,30.9,29.9,30.13,NE,38,0.0,1.0,96,0.00,,,0.00,Wunderground v.1.15,2013-01-16 02:39:00,
2013-01-15 20:44:00,30.9,29.9,30.13,NE,38,0.0,0.0,96,0.00,,,0.00,Wunderground v.1.15,2013-01-16 02:44:00,
2013-01-15 20:49:00,30.9,29.9,30.12,NE,38,0.0,0.0,96,0.00,,,0.00,Wunderground v.1.15,2013-01-16 02:49:00,
2013-01-15 20:54:00,30.9,29.9,30.12,NE,38,1.0,1.0,96,0.00,,,0.00,Wunderground v.1.15,2013-01-16 02:54:00,
2013-01-15 20:59:00,30.9,29.9,30.12,NE,38,0.0,1.0,96,0.00,,,0.00,Wunderground v.1.15,2013-01-16 02:59:00,
2013-01-15 21:05:00,30.8,29.8,30.13,NE,38,1.0,2.0,96,0.00,,,0.00,Wunderground v.1.15,2013-01-16 03:05:00,
2013-01-15 21:10:00,30.8,29.8,30.13,NE,38,0.0,2.0,96,0.00,,,0.00,Wunderground v.1.15,2013-01-16 03:10:00,
2013-01-15 21:15:00,30.8,29.8,30.12,NE,38,0.0,2.0,96,0.00,,,0.00,Wunderground v.1.15,2013-01-16 03:15:00,
2013-01-15 21:20:00,30.8,29.8,30.11,NE,38,0.0,2.0,96,0.00,,,0.00,Wunderground v.1.15,2013-01-16 03:20:00,
2013-01-15 21:25:00,30.8,29.5,30.11,NE,38,0.0,1.0,95,0.00,,,0.00,Wunderground v.1.15,2013-01-16 03:25:00,
2013-01-15 21:30:00,30.9,29.9,30.11,NE,38,0.0,0.0,96,0.00,,,0.00,Wunderground v.1.15,2013-01-16 03:30:00,
2013-01-15 21:35:00,30.9,29.9,30.11,NE,38,0.0,2.0,96,0.00,,,0.00,Wunderground v.1.15,2013-01-16 03:35:00,
2013-01-15 21:40:00,30.9,29.9,30.09,NE,38,0.0,0.0,96,0.00,,,0.00,Wunderground v.1.15,2013-01-16 03:40:00,
2013-01-15 21:46:00,31.0,30.0,30.09,NE,38,0.0,1.0,96,0.00,,,0.00,Wunderground v.1.15,2013-01-16 03:46:00,
2013-01-15 21:51:00,31.0,30.0,30.09,NE,38,0.0,0.0,96,0.00,,,0.00,Wunderground v.1.15,2013-01-16 03:51:00,
2013-01-15 21:56:00,31.0,30.0,30.08,NE,38,0.0,3.0,96,0.00,,,0.00,Wunderground v.1.15,2013-01-16 03:56:00,
2013-01-15 22:01:00,31.1,30.1,30.11,NE,38,0.0,0.0,96,0.00,,,0.00,Wunderground v.1.15,2013-01-16 04:01:00,
2013-01-15 22:06:00,31.1,30.1,30.10,NE,38,1.0,1.0,96,0.00,,,0.00,Wunderground v.1.15,2013-01-16 04:06:00,
2013-01-15 22:11:00,31.1,30.1,30.11,NE,38,0.0,1.0,96,0.00,,,0.00,Wunderground v.1.15,2013-01-16 04:11:00,
2013-01-15 22:16:00,31.1,30.1,30.09,NE,38,0.0,2.0,96,0.00,,,0.00,Wunderground v.1.15,2013-01-16 04:16:00,
2013-01-15 22:21:00,31.1,30.1,30.10,NE,38,1.0,3.0,96,0.00,,,0.00,Wunderground v.1.15,2013-01-16 04:21:00,
2013-01-15 22:27:00,31.1,30.1,30.08,NE,38,1.0,3.0,96,0.00,,,0.00,Wunderground v.1.15,2013-01-16 04:27:00,
2013-01-15 22:32:00,31.1,30.1,30.09,NE,38,0.0,2.0,96,0.00,,,0.00,Wunderground v.1.15,2013-01-16 04:32:00,
2013-01-15 22:37:00,31.1,30.1,30.08,NE,38,1.0,2.0,96,0.00,,,0.00,Wunderground v.1.15,2013-01-16 04:37:00,
2013-01-15 22:42:00,31.1,30.1,30.10,NE,38,0.0,1.0,96,0.00,,,0.00,Wunderground v.1.15,2013-01-16 04:42:00,
2013-01-15 22:47:00,31.1,30.1,30.09,NE,38,0.0,1.0,96,0.00,,,0.00,Wunderground v.1.15,2013-01-16 04:47:00,
2013-01-15 22:52:00,31.1,30.1,30.11,NE,38,0.0,0.0,96,0.00,,,0.00,Wunderground v.1.15,2013-01-16 04:52:00,
2013-01-15 22:57:00,31.2,30.2,30.13,NE,38,0.0,1.0,96,0.00,,,0.00,Wunderground v.1.15,2013-01-16 04:57:00,
2013-01-15 23:00:00,31.1,30.1,30.12,NE,38,0.0,2.0,96,0.00,,,0.00,Wunderground v.1.15,2013-01-16 05:00:00,
2013-01-15 23:01:00,31.1,30.1,30.12,NE,38,0.0,0.0,96,0.00,,,0.00,Wunderground v.1.15,2013-01-16 05:01:00,
2013-01-15 23:03:00,31.1,30.1,30.12,NE,38,2.0,2.0,96,0.00,,,0.00,Wunderground v.1.15,2013-01-16 05:03:00,
2013-01-15 23:08:00,31.0,30.0,30.11,NE,38,0.0,2.0,96,0.00,,,0.00,Wunderground v.1.15,2013-01-16 05:08:00,
2013-01-15 23:13:00,31.0,30.0,30.11,NE,38,0.0,1.0,96,0.00,,,0.00,Wunderground v.1.15,2013-01-16 05:13:00,
2013-01-15 23:18:00,31.1,30.1,30.12,NE,38,0.0,1.0,96,0.00,,,0.00,Wunderground v.1.15,2013-01-16 05:18:00,
2013-01-15 23:23:00,31.1,30.1,30.11,NE,38,0.0,0.0,96,0.00,,,0.00,Wunderground v.1.15,2013-01-16 05:23:00,
2013-01-15 23:28:00,31.1,30.1,30.11,NE,38,1.0,2.0,96,0.00,,,0.00,Wunderground v.1.15,2013-01-16 05:28:00,
2013-01-15 23:33:00,31.1,30.1,30.12,NE,38,0.0,0.0,96,0.00,,,0.00,Wunderground v.1.15,2013-01-16 05:33:00,
2013-01-15 23:39:00,31.1,30.1,30.11,NE,38,2.0,3.0,96,0.00,,,0.00,Wunderground v.1.15,2013-01-16 05:39:00,
2013-01-15 23:48:00,30.7,29.4,30.11,NE,38,2.0,2.0,95,0.00,,,0.00,Wunderground v.1.15,2013-01-16 05:48:00,
2013-01-15 23:53:00,30.5,29.2,30.11,NE,38,0.0,1.0,95,0.00,,,0.00,Wunderground v.1.15,2013-01-16 05:53:00,
2013-01-15 23:58:00,30.3,29.0,30.11,NE,38,0.0,2.0,95,0.00,,,0.00,Wunderground v.1.15,2013-01-16 05:58:00,